Regional Weather Roundup
Issued by NWS

Home | Current Version | Previous Version | Graphics & Text | Print | Product List | Glossary On
Versions: 1 2 3 4 5 6 7 8 9 10 11 12 13 14 15 16 17 18 19 20 21 22 23 24 25 26 27 28 29 30 31 32 33 34 35 36 37 38 39 40 41 42 43 44 45 46 47 48 49 50
000
ASUS43 KMKX 011828
RWRWI

WISCONSIN REGIONAL WEATHER ROUNDUP
NATIONAL WEATHER SERVICE MILWAUKEE/SULLIVAN WI
100 PM CDT MON JUN 01 2015

NOTE: "FAIR" INDICATES FEW OR NO CLOUDS BELOW 12,000 FEET WITH NO
SIGNIFICANT WEATHER AND/OR OBSTRUCTIONS TO VISIBILITY.

WIZ001-002-006>008-014>016-023>028-011900-
NORTHWEST WISCONSIN

CITY           SKY/WX    TMP DP  RH WIND       PRES   REMARKS
SUPERIOR ARPT  SUNNY     50  39  67 NE10      30.28F
6HR MIN TEMP:  41; 6HR MAX TEMP:  50;

ASHLAND        SUNNY     63  45  51 N13       30.28F
6HR MIN TEMP:  37; 6HR MAX TEMP:  63;

HAYWARD        SUNNY     65  34  31 SE8       30.26F
6HR MIN TEMP:  43; 6HR MAX TEMP:  65;

SIREN          MOSUNNY   65  33  29 SE12G17   30.25S
6HR MIN TEMP:  51; 6HR MAX TEMP:  65;

CUMBERLAND     MOSUNNY   61  37  41 SE9       30.26F
RICE LAKE      MOSUNNY   64  34  33 SE9       30.28S
6HR MIN TEMP:  47; 6HR MAX TEMP:  64;

CHETEK         MOSUNNY   63  39  41 SE8       30.26S
6HR MIN TEMP:  46; 6HR MAX TEMP:  63;

LADYSMITH      SUNNY     64  37  36 S6        30.27F
6HR MIN TEMP:  47; 6HR MAX TEMP:  65;

EAU CLAIRE     SUNNY     64  39  39 S8        30.25F
6HR MIN TEMP:  46; 6HR MAX TEMP:  65;

MENOMONIE      SUNNY     64  41  43 SE6       30.25F
6HR MIN TEMP:  46; 6HR MAX TEMP:  64;

NEW RICHMOND   SUNNY     62  39  43 SE8G16    30.24F
6HR MIN TEMP:  47; 6HR MAX TEMP:  62;

OSCEOLA        SUNNY     63  38  39 S9G16     30.26F
6HR MIN TEMP:  49; 6HR MAX TEMP:  63;

$$

WIZ003>005-009-010-017-018-011900-
NORTH CENTRAL WISCONSIN

CITY           SKY/WX    TMP DP  RH WIND       PRES   REMARKS
MANITOWISH WTR SUNNY     62  32  32 S9        30.27F
6HR MIN TEMP:  43; 6HR MAX TEMP:  62;

ARBOR VITAE    SUNNY     63  32  31 S7        30.27F
6HR MIN TEMP:  44; 6HR MAX TEMP:  63;

WOODRUFF       SUNNY     63  32  31 S7        30.27F
6HR MIN TEMP:  44; 6HR MAX TEMP:  63;

RHINELANDER    SUNNY     61  33  35 SE10      30.29F
6HR MIN TEMP:  41; 6HR MAX TEMP:  62;

EAGLE RIVER    SUNNY     62  27  26 E10       30.28F
6HR MIN TEMP:  44; 6HR MAX TEMP:  62;

LAND O LAKES   SUNNY     64  25  22 SE5       30.29F
6HR MIN TEMP:  41; 6HR MAX TEMP:  64;

PHILLIPS       MOSUNNY   62  37  39 SE6       30.26F
6HR MIN TEMP:  43; 6HR MAX TEMP:  62;

TOMAHAWK       SUNNY     62  36  38 SE3       30.28F
6HR MIN TEMP:  41; 6HR MAX TEMP:  62;

MEDFORD        SUNNY     60  43  53 SE8       30.28S
6HR MIN TEMP:  42; 6HR MAX TEMP:  60;

MERRILL        SUNNY     61  40  44 E6        30.29F
$$

WIZ029-030-035-036-043>047-011900-
CENTRAL WISCONSIN

CITY           SKY/WX    TMP DP  RH WIND       PRES   REMARKS
WAUSAU         SUNNY     62  37  39 VRB5      30.27F
6HR MIN TEMP:  42; 6HR MAX TEMP:  62;

MOSINEE        SUNNY     61  39  44 SE12      30.29F
MARSHFIELD     MOSUNNY   62  43  49 E9        30.27F
6HR MIN TEMP:  44; 6HR MAX TEMP:  63;

STEVENS POINT  SUNNY     59  38  44 E7        30.29F
6HR MIN TEMP:  41; 6HR MAX TEMP:  60;

WAUPACA        SUNNY     64  35  34 E9        30.30S
6HR MIN TEMP:  47; 6HR MAX TEMP:  64;

WAUTOMA        SUNNY     63  35  35 NE13      30.28F
6HR MIN TEMP:  46; 6HR MAX TEMP:  64;

WISC RAPIDS    SUNNY     64  35  34 SE13      30.28F
6HR MIN TEMP:  45; 6HR MAX TEMP:  65;

CAMP DOUGLAS   MOSUNNY   64  41  42 E9        30.26F
$$

WIZ011>013-019>022-031-037>040-048>050-011900-
NORTHEAST WISCONSIN

CITY           SKY/WX    TMP DP  RH WIND       PRES   REMARKS
ANTIGO         SUNNY     60  36  41 SE12      30.30S
SHAWANO        SUNNY     63  39  41 E7        30.31F
6HR MIN TEMP:  44; 6HR MAX TEMP:  63;

OCONTO         SUNNY     60  39  46 E3        30.31F
6HR MIN TEMP:  41; 6HR MAX TEMP:  60;

STURGEON BAY   SUNNY     57  39  51 N7        30.34F
6HR MIN TEMP:  45; 6HR MAX TEMP:  57;

GREEN BAY      SUNNY     62  42  47 E6G16     30.30F
6HR MIN TEMP:  47; 6HR MAX TEMP:  62;

MANITOWOC      SUNNY     57  35  43 E8        30.31F
6HR MIN TEMP:  44; 6HR MAX TEMP:  58; 6HR PCP:  0.01;

APPLETON       SUNNY     61  34  36 E7        30.30F
CLINTONVILLE   SUNNY     61  36  39 E3        30.30F
OSHKOSH        SUNNY     60  37  42 E8        30.29F
6HR MIN TEMP:  49; 6HR MAX TEMP:  60;

$$

WIZ032>034-041-042-053>061-011900-
SOUTHWEST WISCONSIN

CITY           SKY/WX    TMP DP  RH WIND       PRES   REMARKS
LA CROSSE      SUNNY     68  41  37 SE9       30.24F
6HR MIN TEMP:  47; 6HR MAX TEMP:  68;

SPARTA         MOSUNNY   65  38  38 E12       30.26F
6HR MIN TEMP:  38; 6HR MAX TEMP:  65;

VIROQUA        SUNNY     64  40  41 E7G16     30.25S
6HR MIN TEMP:  44; 6HR MAX TEMP:  64;

BOSCOBEL       SUNNY     67  37  33 E8        30.24F
6HR MIN TEMP:  46; 6HR MAX TEMP:  67;

PRAIRIE DU CHI SUNNY     65  38  37 E10       30.22F
6HR MIN TEMP:  44; 6HR MAX TEMP:  66;

PLATTEVILLE    SUNNY     64  37  35 E12       30.23F
6HR MIN TEMP:  47; 6HR MAX TEMP:  64;

$$

WIZ056-057-062-063-064-067-068-011900-
SOUTH CENTRAL WISCONSIN

CITY           SKY/WX    TMP DP  RH WIND       PRES   REMARKS
REEDSBURG      SUNNY     62  37  39 E9        30.26F
6HR MIN TEMP:  42; 6HR MAX TEMP:  62;

BARABOO/DELLS  SUNNY     62  39  42 E12       30.26F
LONE ROCK      SUNNY     65  37  35 E10G18    30.25F
6HR MIN TEMP:  46; 6HR MAX TEMP:  65;

MINERAL POINT  SUNNY     63  36  36 NE13      30.23F
MADISON        SUNNY     63  39  41 E16       30.25F
6HR MIN TEMP:  45; 6HR MAX TEMP:  63;

MIDDLETON      SUNNY     63  37  38 E10G16    30.26F
6HR MIN TEMP:  47; 6HR MAX TEMP:  63;

WATERTOWN      SUNNY    N/A N/A N/A E10G16    30.26F
                                      6HR PCP:  0.01;

MONROE         SUNNY     61  43  51 NE13G20   30.23F
JANESVILLE     SUNNY     63  39  42 E16G22    30.25S
$$

WIZ051-052-058>065-066-070>072-011900-
SOUTHEAST WISCONSIN

CITY           SKY/WX    TMP DP  RH WIND       PRES   REMARKS
MILWAUKEE      MOSUNNY   53  38  56 NE12      30.29F
6HR MIN TEMP:  46; 6HR MAX TEMP:  54;

WAUKESHA       SUNNY     55  36  47 NE12      30.28F
MILWAUKEE/TIMM SUNNY     55  28  35 NE8       30.29S
RACINE         SUNNY     54  41  61 NE12      30.29F
6HR MIN TEMP:  46; 6HR MAX TEMP:  54;

BURLINGTON     SUNNY     57  39  51 E14       30.26F
6HR MIN TEMP:  43; 6HR MAX TEMP:  57;

KENOSHA        SUNNY     57  42  57 E9        30.27F
6HR MIN TEMP:  45; 6HR MAX TEMP:  57;

FOND DU LAC    SUNNY     62  34  35 E13G18    30.29F
6HR MIN TEMP:  47; 6HR MAX TEMP:  62;

SHEBOYGAN      SUNNY     57  38  48 NE12      30.30F
6HR MIN TEMP:  44; 6HR MAX TEMP:  58;

WEST BEND      SUNNY     59  32  36 E10G17    30.28F
JUNEAU         SUNNY     60  37  41 E10       30.28F
6HR MIN TEMP:  44; 6HR MAX TEMP:  61;

$$

LSZ147-162-011900-
LAKE SUPERIOR

STATION/POSITION TIME  TEMP    WIND        PRES    WAVE
                       AIR SEA DIR/SP/G            HT/PER
                 (UTC) (F)     (DEG/KT/KT) (MB)    (FT/S)
W MID LAKE BUOY  1750   39 37   40/  6/  6   N/A     0
DEVILS ISLAND    1800   41      50/ 12/ 12   N/A
PORT WING        1740   42      30/ 15/ 18   N/A
$$

LMZ867-665-643>646-011900-
LAKE MICHIGAN

STATION/POSITION TIME  TEMP    WIND        PRES    WAVE
                       AIR SEA DIR/SP/G            HT/PER
                 (UTC) (F)     (DEG/KT/KT) (MB)    (FT/S)
CHAMBERS ISLAND  1700   53     360/  5/  6   N/A
N MID LAKE BUOY  1750   40 37   20/  6/  6   N/A     0
NORTHPORT PIER   1700   49      90/  4/  5   N/A



USA.gov is the U.S. government's official web portal to all federal, state and local government web resources and services.